This is the latest recevied weather packets stored in our database for station/object WL7CLI. If no packets are shown the sender has not sent any weather packets the latest 10 day(s).
| Time | Temp. | Humidity | Pressure | Rain* | Wind** | Luminosity | Snow |
|---|---|---|---|---|---|---|---|
| 1778108305 | 13.89° C | 34% | 1016.3 hPa | 0 mm | - | - | - |
| 1778108299 | 13.89° C | 34% | 1016.9 hPa | 0 mm | - | - | - |
| 1778108175 | 13.89° C | 33% | 1016.9 hPa | 0 mm | - | - | - |
| 1778107098 | 13.33° C | 35% | 1016.8 hPa | 0 mm | - | - | - |
| 1778106974 | 13.89° C | 33% | 1016.8 hPa | 0 mm | - | - | - |
| 1778106505 | 13.89° C | 33% | 1016.2 hPa | 0 mm | - | - | - |
| 1778105900 | 13.89° C | 33% | 1016.8 hPa | 0 mm | - | - | - |
| 1778105775 | 13.89° C | 32% | 1016.8 hPa | 0 mm | - | - | - |
| 1778104705 | 13.89° C | 33% | 1016.4 hPa | 0 mm | - | - | - |
| 1778104699 | 13.89° C | 33% | 1016.9 hPa | 0 mm | - | - | - |
| 1778104573 | 13.89° C | 33% | 1016.9 hPa | 0 mm | - | - | - |
| 1778103499 | 14.44° C | 33% | 1016.7 hPa | 0 mm | - | - | - |
| 1778103374 | 14.44° C | 32% | 1016.8 hPa | 0 mm | - | - | - |
| 1778102905 | 13.89° C | 35% | 1016.4 hPa | 0 mm | - | - | - |
| 1778102299 | 13.89° C | 33% | 1017 hPa | 0 mm | - | - | - |
| 1778102175 | 13.89° C | 33% | 1016.9 hPa | 0 mm | - | - | - |
| 1778101105 | 14.44° C | 35% | 1016.7 hPa | 0 mm | - | - | - |
| 1778101099 | 14.44° C | 33% | 1017.1 hPa | 0 mm | - | - | - |
| 1778100975 | 14.44° C | 30% | 1017.1 hPa | 0 mm | - | - | - |
| 1778099899 | 14.44° C | 37% | 1017.3 hPa | 0 mm | - | - | - |
| 1778099775 | 14.44° C | 32% | 1017.3 hPa | 0 mm | - | - | - |
| 1778099305 | 13.89° C | 39% | 1016.8 hPa | 0 mm | - | - | - |
| 1778098699 | 14.44° C | 32% | 1017.4 hPa | 0 mm | - | - | - |
| 1778098573 | 15° C | 32% | 1017.4 hPa | 0 mm | - | - | - |
| 1778097505 | 14.44° C | 35% | 1017.2 hPa | 0 mm | - | - | - |
* Rain latest hour (hover to see other rain measurements)
** Current wind speed in m/s (hover to see current wind gust speed)